ARIANE 44LP DEB, 25540

Orbit data source: Space-Track

ARIANE 44LP DEB, 25540 is space debris in HEO originally from a launch on Sun, 11 Dec 1988 UTC launched from the French Guiana (FRGUI). Debris objects in space refer to the collection of defunct objects orbiting the Earth. Examples of debris include non-operational satellites, rocket bodies, and fragments generated from explosions, collisions, or faulty payload assembly.

Loading next visibility...
Identifier
25540, 1988-109G
Orbit
HEO
Country
Flag of FRFR
Related business
Manufacturer
Unknown
Mission
Spacecraft
Bus & Motor
Unknown
Mass
Unknown
Launch date (UTC)
1988-12-11 (38 years ago)
Launch vehicle
Unknown
Launch site
French Guiana (FRGUI)
Object type
Payload
Rocket body
Debris
Shape & HBR
Unknown shape, 1.1 m
Radar Cross Section
Large (>1 m²)

Expand to show TLE details & history
Last TLE update: 16 hours ago

TLE from 16 hours ago
0 ARIANE 44LP DEB
1 25540U 88109G   26257.02624375  .00003476  00000-0  36059-2 0  9998
2 25540   6.6285 239.0506 6556442  44.8663 352.3612  3.16585455278059
Epoch: 2026-09-14T00:37Z
TLE epoch observation values (Epoch: 2026-09-14T00:37:47.460Z)
Latitude
0.00004°
Longitude
-123.55436°
Altitude
1,265.618 km
Speed
9.162 km/s
True Right ascension
15h 55m 37s
True Declination
0° 00' 00"
Sunlit
Object was in daylight at epoch
Visualization orbit readout
Latitude
Unknown
Longitude
Unknown
Altitude
Unknown
Speed
Unknown
Apparent Right ascension
Unknown
Apparent Declination
Unknown
Sunlit
N/A
Visualization observer readout
Local Sidereal Time
09:33:26
Azimuth
Unknown
Elevation
Unknown
Doppler factor
Unknown
Orbital elements
Apogee altitude
26,067.422 km
Perigee altitude
370.183 km
Semi-major axis
19,596.939 km
Eccentricity
0.65564
Inclination
6.6285°
RAAN
239.0506°
Arg. of periapsis
44.8663°
True anomaly
315.26094°
Mean anomaly
352.3612°
Eccentric anomaly
338.73967°
Mean motion
0.79115 °/min
Orbital period
455.03 mins
BSTAR
0.0036059
Loading maneuver chart data...
Computing Atmospheric mass density...
Loading historical data...
Loading historical data...
Loading historical data...
Loading historical data...
Loading historical data...
Loading historical data...
Loading historical data...

Documentation

Showing up to 5 results
|